This is the latest recevied weather packets stored in our database for station/object NR6G-12. If no packets are shown the sender has not sent any weather packets the latest 10 day(s).
| Time | Temp. | Humidity | Pressure | Rain* | Wind** | Luminosity | Snow |
|---|---|---|---|---|---|---|---|
| 1788650592 | 21.11° C | 45% | 1017.7 hPa | 0 mm | - | - | - |
| 1788650232 | 21.67° C | 45% | 1017.6 hPa | 0 mm | - | - | - |
| 1788649512 | 22.22° C | 45% | 1017.8 hPa | 0 mm | - | - | - |
| 1788649152 | 22.22° C | 42% | 1017.9 hPa | 0 mm | - | - | - |
| 1788648792 | 22.22° C | 44% | 1017.9 hPa | 0 mm | - | - | - |
| 1788648432 | 21.67° C | 46% | 1017.9 hPa | 0 mm | - | - | - |
| 1788648074 | 22.22° C | 46% | 1018 hPa | 0 mm | - | - | - |
| 1788647712 | 21.67° C | 47% | 1018 hPa | 0 mm | - | - | - |
| 1788647352 | 21.67° C | 47% | 1018.1 hPa | 0 mm | - | - | - |
| 1788646992 | 21.67° C | 47% | 1018 hPa | 0 mm | - | - | - |
| 1788646632 | 21.67° C | 49% | 1018 hPa | 0 mm | - | - | - |
| 1788646272 | 21.67° C | 47% | 1018.1 hPa | 0 mm | - | - | - |
| 1788645912 | 22.22° C | 48% | 1018.1 hPa | 0 mm | - | - | - |
| 1788645552 | 22.22° C | 47% | 1018.2 hPa | 0 mm | - | - | - |
| 1788645194 | 22.22° C | 47% | 1018.3 hPa | 0 mm | - | - | - |
| 1788644832 | 22.22° C | 48% | 1017.5 hPa | 0 mm | - | - | - |
| 1788644472 | 21.67° C | 51% | 1017.6 hPa | 0 mm | - | - | - |
| 1788644112 | 21.11° C | 50% | 1017.6 hPa | 0 mm | - | - | - |
| 1788643752 | 21.11° C | 51% | 1017.7 hPa | 0 mm | - | - | - |
| 1788643392 | 21.11° C | 52% | 1017.5 hPa | 0 mm | - | - | - |
| 1788643032 | 21.11° C | 53% | 1017.7 hPa | 0 mm | - | - | - |
| 1788642672 | 20.56° C | 53% | 1017.7 hPa | 0 mm | - | - | - |
| 1788642312 | 20.56° C | 54% | 1017.7 hPa | 0 mm | - | - | - |
| 1788641952 | 20.56° C | 53% | 1017.7 hPa | 0 mm | - | - | - |
| 1788641471 | 20° C | 55% | 1017.8 hPa | 0 mm | - | - | - |
* Rain latest hour (hover to see other rain measurements)
** Current wind speed in m/s (hover to see current wind gust speed)